Location: Kaiser
(34.0939°N, 117.4889°W)
Time: 02:43:10
(UTC+00:00)

H-2A R/B - Pass Details

Date: 29 October 2020
Orbit: 500 x 540 km, 97.3° (Epoch: 22 November)

Event Time Altitude Azimuth Distance (km) Brightness Sun altitude
Rises 13:12:42 0° 16° (NNE) 2,655 6.4 -11.9°
Reaches altitude 10° 13:14:49 10° 20° (NNE) 1,770 5.6 -11.5°
Maximum altitude 13:18:36 58° 100° (E) 622 3.5 -10.7°
Drops below altitude 10° 13:22:23 10° 180° (S) 1,778 5.5 -9.9°
Sets 13:24:31 0° 184° (S) 2,669 6.4 -9.5°
